STARLINK-36483, 67330

Orbit data source: Space-Track

STARLINK-36483, 67330 is a payload satellite owned by SpaceX/Seattle (US) in LEO that was launched on Sun, 04 Jan 2026 UTC via an FALCON 9 launch vehicle from the Air Force Eastern Test Range (AFETR). Payload-class satellites include a variety of spacecraft equipped with specific instruments for various scientific and technological missions. These include communications satellites like Starlink; space stations such as the ISS; scientific satellites like the Hubble; Earth observation satellites from companies like Planet Labs, Umbra, and HawkEye 360; GPS; miniature CubeSats for education and research; and military/defense satellites.

Loading next visibility...
Identifier
67330, 2026-002AB
Orbit
LEO
Country
Flag of USUS
Related business
Manufacturer
SpaceX/Seattle
Mission
Operational Commercial Communications
Bus & Motor
STARLINK V2MO, Unknown motor
Mass
575 kg wet, ~530 kg dry
Launch date (UTC)
2026-01-04 (5 months ago)
Launch vehicle
FALCON 9
Launch site
Air Force Eastern Test Range (AFETR)
Object type
Payload
Rocket body
Debris
Shape & HBR
Box + 2 Pan, 17.7 m
Radar Cross Section
36.964 m², Large (>1 m²)

Expand to show TLE details & history
Last TLE update: 16 hours ago

TLE from 16 hours ago
0 STARLINK-36483
1 67330U 26002AB  26171.20143088  .00017604  00000-0  64703-3 0  9993
2 67330  43.0037 106.6021 0001325 263.8476  96.2225 15.27615671 26916
Epoch: 2026-06-20T04:50Z
TLE epoch observation values (Epoch: 2026-06-20T04:50:03.628Z)
Latitude
0.00002°
Longitude
125.66755°
Altitude
482.817 km
Speed
7.626 km/s
True Right ascension
07h 06m 24s
True Declination
0° 00' 00"
Sunlit
Object was in daylight at epoch
Visualization orbit readout
Latitude
Unknown
Longitude
Unknown
Altitude
Unknown
Speed
Unknown
Apparent Right ascension
Unknown
Apparent Declination
Unknown
Sunlit
N/A
Visualization observer readout
Local Sidereal Time
07:20:40
Azimuth
Unknown
Elevation
Unknown
Doppler factor
Unknown
Orbital elements
Apogee altitude
485.796 km
Perigee altitude
483.978 km
Semi-major axis
6,863.024 km
Eccentricity
0.00013
Inclination
43.0037°
RAAN
106.6021°
Arg. of periapsis
263.8476°
True anomaly
96.23759°
Mean anomaly
96.2225°
Eccentric anomaly
96.23005°
Mean motion
3.81742 °/min
Orbital period
94.3 mins
BSTAR
0.00064703
Loading maneuver chart data...
Computing Atmospheric mass density...
Loading historical data...
Loading historical data...
Loading historical data...
Loading historical data...
Loading historical data...
Loading historical data...
Loading historical data...

Documentation

Showing up to 5 results
|